Hourly Data Report for January 12, 2018

All times are specified in Local Standard Time (LST). Add 1 hour to adjust for Daylight Saving Time where and when it is observed.

ABBOTSFORD A
BRITISH COLUMBIA

49°01'31.000" N
122°21'36.000" W
59.10 m
1100031
71108
YXX

Download Data

Hourly Data (January 2018)
Hourly Data Report for January 12, 2018
Temp Definition
°C
Dew Point Temp Definition
°C
Rel Hum Definition
%
Wind Dir Definition
10's deg

Wind Spd Definition
km/h
Visibility Definition
km
Stn Press Definition
kPa
Hmdx Definition


Wind Chill Definition


Weather Definition


TIME
00:00 Legend Double Dagger 0.2 -0.8 93 7 17 11.3 101.04     Rain,Snow
01:00 Legend Double Dagger 0.0 -0.8 94 6 17 9.7 101.10   -5 Freezing Rain
02:00 Legend Double Dagger -0.1 -0.8 95 7 13 4.8 101.18   -4 Freezing Drizzle
03:00 Legend Double Dagger -0.4 -1.0 96 8 13 6.4 101.29   -5 Freezing Drizzle
04:00 Legend Double Dagger -0.1 -0.4 98 7 11 4.8 101.38   -4 Freezing Rain
05:00 Legend Double Dagger -0.1 -0.6 97 7 14 4.8 101.44   -4 Freezing Drizzle
06:00 Legend Double Dagger -0.2 -0.6 97 7 14 6.4 101.46   -4 Freezing Drizzle
07:00 Legend Double Dagger -0.2 -0.5 98 8 12 4.0 101.52   -4 Freezing Drizzle
08:00 Legend Double Dagger -0.1 -0.5 97 8 11 9.7 101.54   -4 Freezing Drizzle
09:00 Legend Double Dagger 0.0 -0.7 95 7 14 9.7 101.63   -4 Drizzle
10:00 Legend Double Dagger 0.1 -0.7 94 7 12 16.1 101.69     Drizzle
11:00 Legend Double Dagger 0.3 -0.5 94 8 13 16.1 101.73     Rain
12:00 Legend Double Dagger 0.6 -0.1 96 9 11 4.8 101.79     Rain
13:00 Legend Double Dagger 0.4 0.1 98 36 3 3.2 101.83     Rain,Fog
14:00 Legend Double Dagger 0.5 0.2 98 9 11 2.8 101.86     Rain,Fog
15:00 Legend Double Dagger 0.5 0.2 98 6 7 2.4 101.92     Rain,Fog
16:00 Legend Double Dagger 0.9 0.7 98 36 3 3.2 102.01     Rain,Fog
17:00 Legend Double Dagger 0.4 0.2 99 7 7 3.2 102.05     Rain,Fog
18:00 Legend Double Dagger 1.1 0.9 99 2 9 3.2 102.09     Rain,Fog
19:00 Legend Double Dagger 1.1 0.9 99 1 5 3.2 102.13     Rain,Fog
20:00 Legend Double Dagger 0.9 0.7 99 3 7 3.2 102.11     Rain,Fog
21:00 Legend Double Dagger 1.0 0.8 99 2 9 4.8 102.09     Rain,Fog
22:00 Legend Double Dagger 1.3 1.1 99 5 8 4.8 102.08     Rain,Fog
23:00 Legend Double Dagger 1.3 1.2 99 2 12 4.8 102.12     Rain,Fog

Notes on Data Quality.

Legend

  • E = Estimated
  • M = Missing
  • NA = Not Available
  • ‡ = Partner data that is not subject to review by the National Climate Archives
Date modified: